Location: Cargill Incorporated Elevator
(42.7294°N, 93.7333°W)
Time: 18:06:50
(UTC+00:00)

Helios 1A Rocket - Visible Passes

Search period start: 11 April 2026 00:00
Search period end: 21 April 2026 00:00
Orbit: 413 x 421 km, 98.3° (Epoch: 11 April)

Date Brightness Start Highest point End Pass type
(mag) Time Alt. Az. Time Alt. Az. Time Alt. Az.
11 Apr 3.0 01:35:03 10° NE 01:37:57 31° E 01:40:51 10° SSE visible
11 Apr 5.6 03:07:58 10° NNW 03:09:41 14° WNW 03:11:22 10° W visible
12 Apr 3.1 02:21:46 10° N 02:24:55 51° WNW 02:28:02 10° SSW visible
13 Apr 3.0 01:36:52 10° NNE 01:39:48 31° E 01:42:42 10° SSE visible
13 Apr 5.6 03:09:51 10° NW 03:11:30 13° WNW 03:13:09 10° W visible
14 Apr 3.2 02:23:28 10° N 02:26:38 51° WNW 02:29:44 10° SSW visible
15 Apr 3.0 01:38:27 10° NNE 01:41:23 31° E 01:44:17 10° SSE visible
15 Apr 5.6 03:11:27 10° NW 03:13:04 13° WNW 03:14:41 10° W visible
16 Apr 3.2 02:24:56 10° N 02:28:04 50° WNW 02:31:11 10° SSW visible
17 Apr 3.0 01:39:47 10° NNE 01:42:43 31° E 01:45:37 10° SSE visible
17 Apr 5.6 03:12:47 10° NW 03:14:24 13° WNW 03:16:00 10° W visible
18 Apr 3.2 02:26:08 10° N 02:29:17 50° WNW 02:32:23 10° SSW visible
19 Apr 3.0 01:40:52 10° NNE 01:43:48 31° E 01:46:40 10° SSE visible
19 Apr 5.6 03:13:51 10° NW 03:15:28 13° WNW 03:17:05 10° W visible
20 Apr 3.1 02:27:06 10° N 02:30:13 51° WNW 02:33:19 10° SSW visible
